Location: Dessau
(51.7984°N, 12.2168°E)
Time: 02:14:40
(UTC+01:00)

ISS - Pass Details

Date: 04 January 2018
Orbit: 401 x 406 km, 51.6° (Epoch: 17 January)

Event Time Altitude Azimuth Distance (km) Brightness Sun altitude
Exits shadow 05:23:22 28° 96° (E) 793 -1.7 -25.7°
Drops below altitude 10° 05:25:10 10° 83° (E) 1,469 0.0 -25.4°
Sets 05:27:17 0° 78° (ENE) 2,332 1.2 -25.1°
